Theta_e
300 299 299 299 299 299 299 299 300 301 302 303 304 305 305 305 306 306 311 311 310 307 306 316 318 315 317 318 316 315 318 319 319 318 319 318 318 318 318 319 320 322 325 334 341
299 299 298 298 298 298 298 298 298 298 298 298 299 301 302 303 304 308 309 309 308 307 306 314 316 318 318 318 316 317 320 321 321 320 319 319 318 318 318 319 319 320 321 332 340
298 298 298 297 298 298 298 298 298 298 298 298 297 297 299 306 308 310 310 316 317 311 311 313 315 317 318 318 318 318 321 322 321 319 317 318 318 317 318 320 320 320 321 326 335
298 298 297 297 298 298 298 298 298 298 297 297 297 297 299 308 311 315 310 316 315 315 313 313 314 317 318 319 318 318 319 320 321 319 317 318 317 318 317 318 318 319 320 320 331
298 297 297 297 297 298 298 298 298 298 297 297 297 297 304 308 309 312 307 315 316 318 317 314 314 315 317 317 317 319 319 318 317 318 317 317 318 318 318 317 317 317 317 318 320
297 297 297 297 297 297 298 298 298 298 298 298 298 304 305 307 306 307 306 313 313 318 318 316 313 314 315 316 317 317 317 317 316 317 317 318 318 317 317 317 317 317 317 318 319
297 297 297 297 297 297 298 298 299 301 302 300 302 306 305 306 305 307 307 309 312 312 316 318 315 314 314 317 316 316 317 317 318 317 317 316 318 318 317 317 317 317 317 317 319
296 297 296 297 297 297 299 300 302 303 301 300 304 306 306 304 306 306 306 307 308 313 316 316 316 317 315 316 316 318 317 319 318 318 317 316 318 318 318 317 317 317 317 317 318
296 296 296 297 297 299 300 302 303 301 302 301 307 307 307 309 308 309 310 310 310 308 310 315 316 317 317 319 319 319 320 319 319 319 318 318 318 319 317 317 318 318 318 317 318
296 296 296 297 297 301 303 303 304 305 309 307 309 307 308 308 309 311 314 311 311 310 309 314 316 318 319 320 322 320 320 321 321 320 318 318 318 319 318 317 318 318 318 317 318
296 296 296 297 299 303 303 306 306 308 306 305 306 308 307 306 308 307 314 312 313 310 314 313 316 319 318 319 319 320 321 321 320 320 318 319 320 319 319 317 318 318 319 319 319
296 296 296 297 300 303 305 305 306 305 306 306 306 304 304 303 305 305 311 313 315 317 314 314 315 314 316 318 318 319 320 321 320 319 318 320 320 320 320 319 318 318 318 319 319
296 296 296 297 300 305 305 305 304 304 306 307 306 306 308 307 304 305 306 310 313 316 315 316 315 315 315 317 319 319 320 320 320 319 319 319 320 320 320 320 318 318 318 319 319
296 297 298 299 305 304 305 305 304 304 309 308 309 311 311 311 310 311 308 308 309 312 312 314 315 316 315 318 319 320 319 319 318 318 320 319 322 322 321 321 321 319 318 318 319
297 298 299 302 302 304 304 305 305 304 311 308 309 310 310 311 311 311 311 312 313 313 314 313 312 312 316 317 318 319 319 319 319 319 319 319 320 323 322 322 321 321 319 319 319
298 299 301 304 304 304 304 305 306 310 312 309 309 309 310 310 311 311 312 313 314 315 315 315 315 315 313 316 318 318 319 319 320 319 320 321 320 322 322 322 322 322 320 319 320
299 299 301 301 303 303 305 307 312 311 307 309 309 309 309 313 312 313 314 315 317 317 317 316 316 316 317 314 317 318 319 323 323 320 321 321 321 322 323 321 322 322 321 320 320
299 300 301 302 303 304 307 310 307 307 308 308 308 309 312 313 313 313 315 316 315 316 316 319 319 317 316 315 317 319 322 322 323 323 321 320 321 322 321 324 328 328 326 324 322
299 303 303 303 302 305 307 308 308 308 307 307 308 310 311 312 313 314 315 315 315 316 318 317 318 317 316 318 319 320 323 321 320 321 322 321 322 326 324 328 329 330 329 325 323
301 304 302 302 302 305 307 305 306 305 306 307 310 310 312 313 311 313 315 315 316 316 317 319 321 318 317 318 319 320 319 321 320 322 322 321 322 324 328 329 331 335 332 331 331
303 304 303 303 304 305 306 305 305 304 305 308 308 311 309 311 310 313 317 316 314 315 313 314 320 321 317 320 321 320 320 319 321 321 323 323 325 328 329 332 333 329 328 326 325
303 305 302 303 305 304 304 304 304 305 305 307 308 309 311 311 310 312 313 314 311 310 312 315 319 323 319 321 320 317 320 320 320 323 322 323 334 331 332 332 327 325 323 322 322
302 304 302 302 305 303 303 304 304 305 306 307 307 308 309 311 310 310 310 311 311 307 312 314 320 321 322 321 319 323 319 319 322 322 324 324 334 330 327 326 324 323 321 320 320
302 305 303 303 302 301 303 305 305 304 306 305 306 308 309 308 308 310 310 309 308 309 315 313 316 322 322 320 320 322 322 319 321 323 323 325 333 332 327 326 324 322 321 319 319
301 303 301 304 304 302 303 304 303 304 304 305 308 308 307 308 307 312 309 309 309 311 310 310 317 324 323 321 321 323 322 320 320 321 322 331 332 330 327 325 323 321 320 320 320
301 301 301 301 302 302 304 304 304 304 304 307 308 307 306 308 309 308 308 307 309 311 310 310 317 321 325 322 322 323 321 319 320 320 323 330 333 327 324 321 320 321 321 320 320
299 300 300 300 304 304 304 303 304 305 305 305 305 306 307 307 305 305 305 305 307 308 309 311 315 324 329 323 322 324 322 321 320 321 328 333 328 323 323 322 322 319 318 317 316
Wind_Speed
22 22 23 22 22 21 21 21 21 21 21 21 20 20 20 20 24 25 33 31 20 14 18 11 12 24 20 18 16 16 10 18 24 23 18 7 12 18 16 15 12 18 17 1 3
22 23 22 22 23 23 22 22 22 23 24 24 24 24 23 23 26 33 31 37 32 27 27 20 19 20 28 26 17 17 16 24 19 18 11 18 17 11 9 16 19 16 14 5 7
22 22 21 21 21 22 22 22 22 23 24 24 24 23 20 17 23 10 7 4 7 22 23 21 18 23 24 24 27 18 25 18 18 20 20 19 18 13 17 16 16 19 18 7 7
23 24 24 24 24 25 25 26 25 25 25 24 23 23 20 10 8 4 4 6 1 11 17 22 23 28 20 20 30 19 27 29 23 19 21 20 20 21 23 20 12 16 15 10 8
27 27 28 29 29 30 30 29 29 29 29 29 26 22 13 14 26 12 19 13 4 11 18 24 30 29 24 20 26 30 21 23 27 21 24 21 20 18 21 22 21 18 17 18 14
27 27 28 29 29 29 30 30 30 31 31 30 28 17 14 22 21 16 20 21 14 17 19 21 20 32 20 28 23 13 29 30 22 27 27 22 20 22 18 22 18 16 17 19 18
30 30 30 30 31 32 33 33 28 26 27 29 26 19 23 38 13 10 10 10 14 25 24 23 26 18 18 17 27 18 17 16 25 24 14 18 25 29 28 18 18 19 20 19 18
32 32 33 35 37 38 38 31 30 29 19 20 17 17 19 20 20 34 32 26 19 8 14 20 25 25 28 18 9 21 21 22 22 21 26 17 20 4 26 31 31 26 23 21 21
32 33 34 37 39 38 31 31 32 20 16 14 6 14 14 9 14 14 21 23 22 30 21 9 15 27 19 20 16 19 23 29 22 20 17 25 15 24 6 22 30 31 28 26 24
33 34 35 37 35 29 28 31 16 14 4 4 4 9 16 11 7 4 7 21 10 19 23 21 14 15 21 19 27 25 24 21 22 19 20 21 21 13 14 22 23 24 26 28 28
33 34 35 37 30 22 32 24 16 7 11 22 26 23 39 20 13 11 5 19 11 24 18 27 18 27 34 28 22 15 23 22 16 15 20 25 22 21 15 13 24 25 20 24 27
34 34 36 36 26 17 21 13 11 11 17 32 25 30 32 28 32 14 13 15 15 18 19 15 27 31 23 22 26 25 19 18 17 18 15 16 21 21 22 21 18 19 23 25 26
35 36 36 32 21 14 15 11 10 16 8 21 8 9 7 4 15 17 29 24 15 19 20 19 14 26 26 25 25 26 27 15 14 17 19 15 19 20 21 25 27 27 24 24 26
36 36 34 26 9 19 12 13 11 12 5 3 1 1 1 0 5 11 18 18 17 22 22 21 23 15 25 29 25 26 25 18 15 11 13 19 7 23 23 21 24 28 29 28 27
36 35 28 15 19 14 15 15 12 2 5 14 9 4 19 9 20 10 15 23 15 17 11 20 21 26 23 29 27 25 22 25 19 16 13 16 9 8 17 21 17 22 27 27 28
36 32 17 14 13 16 20 15 4 5 3 12 15 21 22 24 25 23 12 22 18 17 16 18 11 14 30 21 23 20 19 23 19 16 14 19 16 14 16 18 20 20 27 29 27
37 27 16 19 18 20 17 9 6 3 20 12 26 22 22 19 10 14 15 17 13 9 14 17 20 20 20 27 25 20 17 9 13 13 17 23 15 10 13 10 13 19 27 29 29
37 10 17 19 23 16 12 9 7 17 15 21 19 26 9 9 7 8 9 13 19 19 13 8 8 20 20 18 20 27 24 15 24 22 21 8 18 12 9 8 2 4 7 14 20
33 5 15 23 17 11 12 5 8 12 17 16 23 11 10 9 8 9 11 12 8 15 10 5 9 16 22 22 24 28 25 26 14 23 13 13 5 3 9 10 7 11 15 17 18
25 8 16 25 14 10 7 6 9 12 16 15 7 8 17 14 14 15 8 6 1 3 9 6 8 10 19 24 26 27 26 22 11 22 19 16 17 9 18 15 12 13 15 15 17
15 7 16 20 10 8 6 7 14 21 20 7 10 6 8 13 20 8 8 13 16 7 8 5 2 7 19 16 24 23 20 20 18 13 14 14 11 7 18 17 16 13 16 17 21
13 4 17 19 10 8 8 14 17 16 22 6 8 9 5 18 13 7 8 7 16 12 4 6 4 2 27 8 20 21 22 27 11 16 14 8 7 2 13 15 15 17 19 21 24
17 6 12 20 6 10 13 12 11 21 16 7 8 7 13 12 9 11 9 14 15 11 3 3 6 5 5 6 6 11 27 28 19 7 11 9 8 8 15 16 18 20 22 26 30
11 6 8 8 10 14 17 11 15 22 14 21 13 12 16 19 7 13 14 12 28 15 10 9 4 8 10 18 14 15 21 28 19 9 12 5 17 17 15 17 17 22 25 29 31
13 5 7 7 11 15 14 12 22 15 9 19 6 17 22 9 15 3 20 14 12 4 14 6 4 7 6 21 13 22 26 29 21 17 4 17 18 18 16 17 20 27 29 31 31
9 7 11 15 15 15 11 10 17 22 19 14 9 22 20 11 12 16 16 9 6 9 14 10 6 6 17 22 15 13 24 23 17 7 7 19 16 18 22 24 24 26 29 29 29
18 12 6 14 10 11 9 17 21 22 11 16 20 22 17 11 16 29 28 20 15 10 6 5 6 4 4 20 19 3 19 22 10 17 11 17 13 20 17 16 20 25 27 28 26
Wind_Direction
348 346 345 343 340 338 336 332 328 323 318 315 311 308 303 294 291 293 273 262 261 244 240 228 201 208 206 214 210 212 233 234 233 228 242 229 223 229 240 247 221 210 236 44 184
346 344 341 338 335 333 331 329 325 320 317 317 315 314 311 309 305 285 272 265 268 249 235 205 204 191 199 208 206 209 227 236 242 238 243 224 219 194 213 217 223 218 226 234 194
345 341 337 334 332 330 328 325 321 316 313 312 310 308 310 315 308 273 269 228 232 213 212 210 209 198 208 211 204 219 236 228 236 235 248 245 238 230 234 234 210 212 209 206 211
343 339 337 337 335 332 329 325 321 315 310 306 303 301 301 303 285 247 263 236 239 172 189 200 202 203 216 212 218 244 231 240 241 230 240 239 246 243 231 237 227 224 236 237 232
343 341 338 337 334 332 328 324 319 314 308 304 297 291 291 251 252 241 257 250 247 193 197 198 203 205 217 222 225 224 247 229 242 237 239 247 243 243 238 240 241 235 237 243 243
344 339 336 335 330 328 324 319 316 310 300 291 285 279 254 254 263 253 245 235 227 208 205 204 210 215 233 235 223 226 233 245 232 240 243 248 244 238 235 236 235 233 233 238 241
345 341 338 336 333 330 326 322 319 312 300 284 273 258 247 242 257 257 223 211 215 219 219 217 217 215 226 255 234 249 237 233 235 229 229 238 249 243 242 228 224 220 228 231 231
348 343 342 337 335 334 330 329 325 312 301 275 260 234 245 262 262 251 245 242 234 213 218 228 225 235 234 245 245 227 233 238 216 221 225 219 251 81 224 222 224 230 233 226 228
348 343 340 335 336 335 331 334 327 322 315 272 213 201 264 280 242 251 231 231 239 231 224 214 216 222 221 231 236 216 226 225 230 198 215 208 238 244 196 207 221 227 225 222 217
347 341 338 335 336 335 338 337 338 327 13 31 209 199 252 257 223 238 226 201 199 192 198 212 211 205 223 203 221 220 227 245 219 196 214 216 227 228 203 201 212 215 215 211 209
345 341 336 335 335 335 342 347 341 284 303 277 279 252 274 282 252 268 217 170 192 178 186 195 204 214 211 216 231 258 238 225 217 225 212 225 230 222 209 213 216 227 212 207 208
344 341 335 335 334 333 352 357 336 304 301 300 280 268 275 263 273 265 194 193 188 190 196 180 221 226 226 224 227 235 242 232 243 206 213 218 232 238 222 224 213 213 218 217 212
343 341 335 334 336 348 330 331 325 326 269 307 297 288 335 229 234 248 220 220 215 226 195 204 225 218 214 215 217 222 225 225 226 215 221 245 238 226 230 225 224 226 225 214 210
343 341 336 329 352 329 338 323 325 327 282 299 211 109 279 74 222 240 209 193 239 239 229 234 240 251 209 214 207 217 215 213 211 194 213 208 251 205 219 215 216 219 222 219 208
343 343 341 339 328 330 320 319 316 276 289 356 6 306 328 258 282 297 212 206 194 202 214 223 224 227 214 213 211 228 207 219 215 238 242 184 235 216 201 211 201 209 212 212 210
344 343 347 349 338 322 319 315 296 241 275 341 333 328 315 310 306 290 191 222 222 221 206 245 256 243 223 212 214 210 224 203 215 227 223 224 214 212 192 210 205 194 207 207 208
343 341 357 349 330 324 321 313 276 324 347 350 331 323 316 312 339 316 287 211 222 213 223 229 248 234 273 206 201 198 196 176 198 209 222 207 216 244 181 180 213 194 202 206 208
345 359 360 353 330 327 327 294 314 6 345 326 323 316 321 337 301 307 268 245 228 238 270 231 214 213 207 215 188 190 187 190 183 192 204 239 215 195 151 119 178 173 199 198 205
347 348 4 346 349 336 305 358 355 359 334 325 317 334 331 353 314 322 290 247 222 220 234 257 242 179 191 205 183 188 198 211 205 201 207 167 188 120 163 161 146 156 155 148 154
349 347 359 351 357 357 8 350 337 338 331 324 306 338 325 348 335 335 293 23 98 42 1 296 268 180 178 201 192 186 199 220 229 186 210 176 194 179 182 166 146 135 103 108 103
354 328 352 358 358 12 29 342 324 330 338 323 311 290 299 339 328 315 321 32 15 350 307 237 243 169 174 197 193 182 202 203 216 205 194 172 167 74 163 148 134 119 116 110 110
351 343 350 6 27 6 4 332 313 329 333 320 278 298 293 323 318 307 310 301 8 327 231 209 171 206 193 195 213 199 193 206 209 188 218 193 116 353 118 111 118 110 106 104 108
344 337 350 19 21 359 340 318 347 330 335 342 306 308 319 327 318 317 330 307 343 350 295 240 187 167 193 194 199 215 199 206 206 217 206 189 124 115 102 111 113 112 113 112 108
349 349 356 345 27 349 338 334 338 345 322 343 298 305 334 325 315 293 292 314 323 314 331 171 248 250 188 191 163 201 216 207 201 230 180 211 137 145 133 126 121 117 116 110 107
14 19 354 316 342 338 332 321 338 341 322 313 289 331 334 304 312 242 327 321 304 289 349 15 260 250 180 142 158 203 197 197 209 216 250 137 144 150 140 131 126 123 119 114 109
9 353 330 293 323 334 343 339 330 329 322 302 300 312 311 285 285 299 308 310 287 317 339 338 326 329 128 149 161 188 179 188 197 183 264 136 121 127 126 120 122 125 119 114 112
346 329 312 290 325 341 342 325 316 328 313 307 311 313 310 302 301 287 279 269 260 292 315 313 331 310 120 154 142 163 200 163 207 190 151 142 126 121 122 121 116 112 116 115 115